Showing default

NINGXIA-1 3, 44781

Orbit data source: Space-Track

NINGXIA-1 3, 44781 is a Chinese payload satellite in LEO that was launched on Wed, 13 Nov 2019 UTC via a CHANG ZHENG 6 launch vehicle from the Taiyaun Space Center, China (TSC). Payload-class satellites include a variety of spacecraft equipped with specific instruments for various scientific and technological missions. These include communications satellites like Starlink; space stations such as the ISS; scientific satellites like the Hubble; Earth observation satellites from companies like Planet Labs, Umbra, and HawkEye 360; GPS; miniature CubeSats for education and research; and military/defense satellites.

Loading next visibility...
Identifier
44781, 2019-076C
Orbit
LEO
Country
Flag of CNCN / PRC
Related business
Manufacturer
DFH
Mission
Operational Commercial Sigint
Bus & Motor
NX-1, Unknown motor
Mass
~100 kg wet, ~100 kg dry
Launch date (UTC)
2019-11-13 (6 years ago)
Launch vehicle
CHANG ZHENG 6
Launch site
Taiyaun Space Center, China (TSC)
Object type
Payload
Rocket body
Debris
Shape & HBR
Box + 2 Pan, Unknown HBR
Radar Cross Section
0.166 m², Medium (>0.1 m² and < 1m²)

Expand to show TLE details & history
Last TLE update: 18 hours ago

TLE from 18 hours ago
0 NINGXIA-1 3
1 44781U 19076C   25258.66181718 -.00000060  00000-0  45102-4 0  9990
2 44781  45.0020 325.2918 0011063 282.2363  77.7232 14.01988114299335
Epoch: 2025-09-15T15:53Z
TLE epoch observation values (Epoch: 2025-09-15T15:53:01.004Z)
Latitude
-0.00001°
Longitude
92.17435°
Altitude
885.218 km
Speed
7.412 km/s
True Right ascension
21h 41m 10s
True Declination
0° 00' 00"
Sunlit
Object was in full shadow at epoch
Visualization orbit readout
Latitude
Unknown
Longitude
Unknown
Altitude
Unknown
Speed
Unknown
Apparent Right ascension
Unknown
Apparent Declination
Unknown
Sunlit
N/A
Visualization observer readout
Local Sidereal Time
02:26:20
Azimuth
Unknown
Elevation
Unknown
Doppler factor
Unknown
Orbital elements
Apogee altitude
896.478 km
Perigee altitude
880.4 km
Semi-major axis
7,266.576 km
Eccentricity
0.00111
Inclination
45.002°
RAAN
325.2918°
Arg. of periapsis
282.2363°
True anomaly
77.84711°
Mean anomaly
77.7232°
Eccentric anomaly
77.78515°
Mean motion
3.50387 °/min
Orbital period
102.74 mins
BSTAR
0.000045102
Loading maneuver chart data...
Computing Atmospheric mass density...
Loading historical data...
Loading historical data...
Loading historical data...
Loading historical data...
Loading historical data...
Loading historical data...
Loading historical data...
Other satellites on launch #76 in the year 2019 (2019-11-13 UTC)

Documentation

Showing up to 5 results
|